Regional Weather Roundup
Issued by NWS Goodland, KS

Home | Current Version | Previous Version | Text Only | Print | Product List | Glossary Off
Versions: 1 2 3 4 5 6 7 8 9 10 11 12 13 14 15 16 17 18 19 20 21 22 23 24 25 26 27 28 29 30 31 32 33 34 35 36 37 38 39 40 41 42 43 44 45 46 47 48 49 50

764
ASUS43 KGLD 241259
RWRGLD

GOODLAND FORECAST AREA HOURLY WEATHER ROUNDUP
NATIONAL WEATHER SERVICE GOODLAND KS
700 AM MDT SUN JUL 24 2016

...OFFICIAL OBSERVATIONS...

CITY           SKY/WX    TMP DP  RH WIND       PRES   REMARKS
GOODLAND KS    MOSUNNY   71  64  78 NE7       30.06R
HILL CITY KS   LGT RAIN  75  68  78 N18       29.96F
IMPERIAL NEB   CLOUDY    70  62  76 CALM      30.07R
MCCOOK NEB     CLOUDY    70  62  76 SE6       30.03R
AKRON CO       CLOUDY    67  57  70 N3        30.16R
BURLINGTON CO  SUNNY     72  62  71 NE5       30.11R
LIMON CO       SUNNY     64  54  69 NW3       30.20R
$$

...UNOFFICIAL OBSERVATIONS...

CITY           SKY/WX    TMP DP  RH WIND       PRES   REMARKS
COLBY KS       SUNNY     72  66  83 NE15      30.01F
LENORA KS        N/A     74  32  21 MISG        N/A
NORTON KS      SUNNY     73  63  68 NE9       30.00S
YUMA CO          N/A     64  58  80 CALM        N/A
$$




USA.gov is the U.S. government's official web portal to all federal, state and local government web resources and services.